Tracking 35334 objects as of 12-Sep-2026
HD Live streaming from Space Station
objects crossing your sky now

MEV-1

Track MEV-1 now!


NORAD ID: 44625
Int'l Code: 2019-067B
Launch date: October 9, 2019
Source: United States (US)
Launch site: TYURATAM MISSILE AND SPACE COMPLEX (TTMTR)
Your satellite tracking list
Your tracking list is empty




NASA's NSSDC Master Catalog

Two Line Element Set (TLE):
1 44625U 19067B   26254.71257652 -.00000163  00000-0  00000+0 0  9998
2 44625   0.8270 268.0212 0004140 263.0067 232.3531  1.00273141 62437
Source of the keplerian elements: AFSPC